Liberty, SC

2:30 AM EDT on July 30, 2016 (GMT -0400)
Pickens County

Weather History for KLQK - January, 2014

Change the Weather History Date:

Tuesday, January 14, 2014

  Actual Average Record
Temperature  
Mean Temperature 48 °F -  
Max Temperature 61 °F 49 °F 61 °F (2014)
Min Temperature 34 °F 28 °F 22 °F (2016)
Degree Days  
Heating Degree Days 16    
Moisture  
Dew Point 39 °F    
Average Humidity 75    
Maximum Humidity 100    
Minimum Humidity 27    
Precipitation  
Precipitation 0.00 in - - ()
Sea Level Pressure  
Sea Level Pressure 29.88 in    
Wind  
Wind Speed 10 mph (WNW)    
Max Wind Speed 12 mph    
Max Gust Speed 16 mph    
Visibility 7 miles    
Events Fog , Rain    
Averages and records for this station are not official NWS values.
T = Trace of Precipitation, MM = Missing Value Source: NWS Daily Summary

Daily Weather History Graph

Daily Weather History Graph

Search for Another Location

Airport or City:

Trip Planner

Search our weather history database for the weather conditions in past years. The results will help you decide how hot, cold, wet, or windy it might be!

Date:

Astronomy

Jan. 14, 2014 Rise Set
Actual Time 7:38 AM EST 5:42 PM EST
Civil Twilight 7:10 AM EST 6:09 PM EST
Nautical Twilight 6:39 AM EST 6:40 PM EST
Astronomical Twilight 6:09 AM EST 7:10 PM EST
Moon 4:45 PM EST (1/14) 6:12 AM EST (1/14)
Length of Visible Light 10h 58m
Length of Day
10h 03m
Waxing Gibbous, 98% of the Moon is Illuminated
Jan 14
Waxing Gibbous
Jan 15
Full
Jan 24
Last Quarter
Jan 30
New
Feb 6
First Quarter

Hourly Weather History & Observations

Time (EST) Temp. Dew Point Humidity Pressure Visibility Wind Dir Wind Speed Gust Speed Precip Events Conditions
12:15 AM 44.6 °F 44.6 °F 100% 29.91 in 4.0 mi North - - N/A   Drizzle
12:35 AM 44.6 °F 44.8 °F 100% 29.89 in 3.0 mi North - - N/A   Drizzle
12:55 AM 44.6 °F 44.8 °F 100% 29.89 in 4.0 mi North - - N/A   Light Drizzle
1:15 AM 44.6 °F 44.6 °F 100% 29.88 in 3.0 mi North - - N/A   Drizzle
1:35 AM 44.6 °F 44.6 °F 100% 29.88 in 1.8 mi North - - N/A   Drizzle
1:55 AM 44.2 °F 44.6 °F 100% 29.87 in 0.8 mi North - - N/A Rain Rain
2:15 AM 44.2 °F 44.6 °F 100% 29.86 in 0.8 mi North - - N/A   Drizzle
2:35 AM 44.4 °F 44.6 °F 100% 29.85 in 3.0 mi North - - N/A   Overcast
2:55 AM 44.4 °F 44.6 °F 100% 29.84 in 0.8 mi North - - N/A   Overcast
3:15 AM 44.4 °F 44.6 °F 100% 29.83 in 1.8 mi North - - N/A   Drizzle
3:35 AM 44.2 °F 44.6 °F 100% 29.83 in 0.8 mi North - - N/A   Drizzle
3:55 AM 44.6 °F 44.6 °F 100% 29.82 in 3.0 mi North - - N/A   Overcast
4:15 AM 44.4 °F 44.6 °F 100% 29.82 in 2.0 mi North - - N/A   Drizzle
4:35 AM 44.2 °F 44.6 °F 100% 29.81 in 1.5 mi North - - N/A   Heavy Drizzle
4:55 AM 44.2 °F 44.6 °F 100% 29.81 in 3.0 mi North - - N/A   Overcast
5:15 AM 44.2 °F 44.6 °F 100% 29.81 in 4.0 mi North - - N/A   Overcast
5:35 AM 44.2 °F 44.6 °F 100% 29.81 in 3.0 mi North - - N/A   Drizzle
5:55 AM 44.6 °F 44.6 °F 100% 29.80 in 5.0 mi North - - N/A   Drizzle
6:15 AM 44.4 °F 44.6 °F 100% 29.81 in 0.5 mi North - - N/A   Light Drizzle
6:35 AM 44.2 °F 44.6 °F 100% 29.80 in 1.2 mi North - - N/A Rain Light Rain
6:55 AM 44.2 °F 44.6 °F 100% 29.80 in 4.0 mi North - - N/A   Overcast
7:15 AM 44.4 °F 44.6 °F 100% 29.81 in 2.5 mi North - - N/A   Overcast
7:35 AM 44.2 °F 44.6 °F 100% 29.83 in 1.5 mi North - - N/A Rain Light Rain
7:55 AM 44.2 °F 44.6 °F 100% 29.84 in 1.2 mi North - - N/A   Overcast
8:15 AM 44.4 °F 44.6 °F 100% 29.83 in 1.0 mi North - - N/A   Overcast
8:35 AM 44.6 °F 44.8 °F 100% 29.83 in 0.5 mi North - - N/A Fog Fog
8:55 AM 45.0 °F 45.1 °F 100% 29.83 in 0.2 mi North - - N/A Fog Fog
9:15 AM 45.5 °F 45.5 °F 100% 29.83 in 4.0 mi North - - N/A   Overcast
9:35 AM 45.7 °F 45.9 °F 100% 29.83 in 7.0 mi North - - N/A   Overcast
9:55 AM 46.6 °F 46.6 °F 100% 29.83 in 10.0 mi North - - N/A   Overcast
10:15 AM 47.3 °F 47.5 °F 100% 29.85 in 10.0 mi North - - N/A   Overcast
10:35 AM 48.2 °F 48.4 °F 100% 29.86 in 10.0 mi North - - N/A   Overcast
10:55 AM 49.6 °F 49.8 °F 100% 29.87 in 10.0 mi North - - N/A   Mostly Cloudy
11:15 AM 52.2 °F 50.5 °F 94% 29.87 in 10.0 mi North - - N/A   Scattered Clouds
11:35 AM 54.1 °F 49.1 °F 83% 29.88 in 10.0 mi North - - N/A   Clear
11:55 AM 56.5 °F 47.8 °F 73% 29.87 in 10.0 mi North - - N/A   Clear
12:15 PM 58.3 °F 45.9 °F 63% 29.87 in 10.0 mi North - - N/A   Clear
12:35 PM 59.2 °F 41.9 °F 53% 29.86 in 10.0 mi North - - N/A   Clear
12:55 PM 60.1 °F 40.1 °F 48% 29.86 in 10.0 mi North - - N/A   Clear
1:15 PM 60.8 °F 37.6 °F 42% 29.85 in 10.0 mi North - - N/A   Clear
1:35 PM 61.0 °F 36.1 °F 40% 29.85 in 10.0 mi North - - N/A   Clear
1:55 PM 61.3 °F 34.0 °F 36% 29.86 in 10.0 mi North - - N/A   Clear
2:15 PM 61.9 °F 32.2 °F 33% 29.85 in 10.0 mi North - - N/A   Clear
2:35 PM 61.5 °F 31.1 °F 32% 29.85 in 10.0 mi North - - N/A   Clear
2:55 PM 61.3 °F 30.0 °F 31% 29.85 in 10.0 mi North - - N/A   Clear
3:15 PM 61.5 °F 28.6 °F 29% 29.86 in 10.0 mi North - - N/A   Clear
3:35 PM 61.2 °F 27.5 °F 28% 29.87 in 10.0 mi West 10.4 mph - N/A   Clear
3:55 PM 60.8 °F 26.8 °F 27% 29.87 in 10.0 mi WNW 10.4 mph 16.1 mph N/A   Clear
4:15 PM 60.8 °F 27.3 °F 28% 29.87 in 10.0 mi WNW 8.1 mph - N/A   Clear
4:35 PM 60.4 °F 26.8 °F 28% 29.88 in 10.0 mi West 11.5 mph - N/A   Clear
4:55 PM 59.4 °F 29.1 °F 32% 29.89 in 10.0 mi North - - N/A   Clear
5:15 PM 57.9 °F 30.2 °F 35% 29.90 in 10.0 mi North - - N/A   Clear
5:35 PM 55.9 °F 32.0 °F 40% 29.91 in 10.0 mi North - - N/A   Clear
5:55 PM 53.6 °F 32.0 °F 44% 29.91 in 10.0 mi North - - N/A   Clear
6:15 PM 52.0 °F 31.8 °F 46% 29.92 in 10.0 mi North - - N/A   Clear
6:35 PM 50.7 °F 31.8 °F 48% 29.93 in 10.0 mi North - - N/A   Clear
6:55 PM 49.5 °F 32.0 °F 51% 29.93 in 10.0 mi North - - N/A   Clear
7:15 PM 48.9 °F 31.8 °F 52% 29.94 in 10.0 mi North - - N/A   Clear
7:35 PM 47.1 °F 32.2 °F 56% 29.94 in 10.0 mi North - - N/A   Clear
7:55 PM 47.5 °F 31.1 °F 53% 29.94 in 10.0 mi North - - N/A   Clear
8:15 PM 45.7 °F 31.3 °F 57% 29.95 in 10.0 mi North - - N/A   Clear
8:35 PM 45.5 °F 31.3 °F 58% 29.95 in 10.0 mi North - - N/A   Clear
8:55 PM 43.9 °F 31.8 °F 63% 29.96 in 10.0 mi North - - N/A   Clear
9:15 PM 43.9 °F 31.8 °F 63% 29.96 in 10.0 mi North - - N/A   Clear
9:35 PM 41.5 °F 32.2 °F 69% 29.97 in 10.0 mi North - - N/A   Clear
9:55 PM 43.2 °F 32.0 °F 65% 29.97 in 10.0 mi North - - N/A   Clear
10:15 PM 40.1 °F 32.0 °F 73% 29.97 in 10.0 mi North - - N/A   Clear
10:35 PM 38.7 °F 32.0 °F 77% 29.97 in 10.0 mi North - - N/A   Clear
10:55 PM 38.1 °F 32.0 °F 79% 29.97 in 10.0 mi North - - N/A   Clear
11:15 PM 38.3 °F 32.2 °F 79% 29.96 in 10.0 mi North - - N/A   Clear
11:35 PM 36.9 °F 32.0 °F 83% 29.96 in 10.0 mi North - - N/A   Clear
11:55 PM 34.7 °F 32.0 °F 90% 29.96 in 10.0 mi North - - N/A   Clear